Mineola, TX

4:43 AM CDT on June 28, 2017 (GMT -0500)
Mineola

Weather History for KJDD - January, 2014

Change the Weather History Date:

Tuesday, January 21, 2014

  Actual Average (KTYR) Record (KTYR)
Temperature  
Mean Temperature 40 °F -  
Max Temperature 51 °F 56 °F 81 °F (1986)
Min Temperature 28 °F 37 °F 11 °F (1985)
Degree Days  
Heating Degree Days 26    
Moisture  
Dew Point 17 °F    
Average Humidity 40    
Maximum Humidity 80    
Minimum Humidity 20    
Precipitation  
Precipitation 0.00 in - - ()
Sea Level Pressure  
Sea Level Pressure 30.30 in    
Wind  
Wind Speed 10 mph (NNW)    
Max Wind Speed 21 mph    
Max Gust Speed 32 mph    
Visibility 10 miles    
Events      
Averages and records for this station are not official NWS values.
T = Trace of Precipitation, MM = Missing Value Source: NWS Daily Summary

Daily Weather History Graph

Daily Weather History Graph

Search for Another Location

Airport or City:

Trip Planner

Search our weather history database for the weather conditions in past years. The results will help you decide how hot, cold, wet, or windy it might be!

Date:

Astronomy

Jan. 21, 2014 Rise Set
Actual Time 7:22 AM CST 5:44 PM CST
Civil Twilight 6:56 AM CST 6:10 PM CST
Nautical Twilight 6:26 AM CST 6:40 PM CST
Astronomical Twilight 5:56 AM CST 7:10 PM CST
Moon 10:57 PM CST (1/21) 10:11 AM CST (1/21)
Length of Visible Light 11h 14m
Length of Day
10h 21m
Waning Gibbous, 74% of the Moon is Illuminated
Jan 21
Waning Gibbous
Jan 23
Last Quarter
Jan 30
New
Feb 6
First Quarter
Feb 14
Full

Hourly Weather History & Observations

Time (CST) Temp. Windchill Dew Point Humidity Pressure Visibility Wind Dir Wind Speed Gust Speed Precip Events Conditions
12:15 AM 51.8 °F - 26.6 °F 38% 30.17 in 10.0 mi NNW 13.8 mph - N/A   Clear
12:35 AM 51.8 °F - 26.6 °F 38% 30.18 in 10.0 mi North 12.7 mph 21.9 mph N/A   Clear
12:55 AM 51.8 °F - 24.8 °F 35% 30.19 in 10.0 mi NNW 13.8 mph 20.7 mph N/A   Clear
1:15 AM 51.8 °F - 26.6 °F 38% 30.20 in 10.0 mi NNW 11.5 mph - N/A   Clear
1:35 AM 50.0 °F - 26.6 °F 40% 30.21 in 10.0 mi NNW 8.1 mph - N/A   Clear
1:55 AM 48.2 °F - 26.6 °F 43% 30.22 in 10.0 mi North 8.1 mph - N/A   Clear
2:15 AM 48.2 °F - 26.6 °F 43% 30.22 in 10.0 mi NNW 8.1 mph - N/A   Clear
2:35 AM 48.2 °F - 26.6 °F 43% 30.24 in 10.0 mi NNW 6.9 mph - N/A   Clear
2:55 AM 48.2 °F - 24.8 °F 40% 30.24 in 10.0 mi NNW 10.4 mph - N/A   Clear
3:15 AM 46.4 °F 42.4 °F 24.8 °F 43% 30.24 in 10.0 mi NNW 8.1 mph - N/A   Clear
3:35 AM 46.4 °F 42.4 °F 24.8 °F 43% 30.25 in 10.0 mi NNW 8.1 mph - N/A   Clear
3:55 AM 46.4 °F 40.7 °F 24.8 °F 43% 30.26 in 10.0 mi NNW 12.7 mph 18.4 mph N/A   Clear
4:15 AM 46.4 °F 40.4 °F 23.0 °F 40% 30.26 in 10.0 mi NNW 13.8 mph 18.4 mph N/A   Clear
4:35 AM 46.4 °F 41.9 °F 23.0 °F 40% 30.27 in 10.0 mi NNW 9.2 mph - N/A   Clear
4:55 AM 46.4 °F 41.9 °F 21.2 °F 37% 30.27 in 10.0 mi NNW 9.2 mph 17.3 mph N/A   Clear
5:15 AM 44.6 °F 37.8 °F 23.0 °F 43% 30.28 in 10.0 mi NW 15.0 mph 18.4 mph N/A   Clear
5:35 AM 44.6 °F 38.1 °F 21.2 °F 39% 30.29 in 10.0 mi NNW 13.8 mph 20.7 mph N/A   Clear
5:55 AM 44.6 °F 38.4 °F 19.4 °F 37% 30.30 in 10.0 mi NNW 12.7 mph 19.6 mph N/A   Clear
6:15 AM 42.8 °F 36.2 °F 19.4 °F 39% 30.31 in 10.0 mi NNW 12.7 mph 19.6 mph N/A   Clear
6:35 AM 42.8 °F 37.0 °F 19.4 °F 39% 30.31 in 10.0 mi NNW 10.4 mph 19.6 mph N/A   Clear
6:55 AM 42.8 °F 36.2 °F 19.4 °F 39% 30.32 in 10.0 mi NW 12.7 mph - N/A   Clear
7:15 AM 41.0 °F 33.9 °F 19.4 °F 42% 30.32 in 10.0 mi NW 12.7 mph 18.4 mph N/A   Clear
7:35 AM 41.0 °F 33.5 °F 17.6 °F 39% 30.33 in 10.0 mi NNW 13.8 mph 18.4 mph N/A   Clear
7:55 AM 39.2 °F 30.5 °F 14.0 °F 36% 30.34 in 10.0 mi NNW 16.1 mph 26.5 mph N/A   Clear
8:15 AM 41.0 °F 33.5 °F 14.0 °F 33% 30.35 in 10.0 mi NW 13.8 mph 19.6 mph N/A   Clear
8:35 AM 39.2 °F 30.2 °F 12.2 °F 33% 30.36 in 10.0 mi NNW 17.3 mph 28.8 mph N/A   Clear
8:55 AM 39.2 °F 29.3 °F 10.4 °F 31% 30.38 in 10.0 mi NNW 20.7 mph 32.2 mph N/A   Clear
9:15 AM 39.2 °F 29.8 °F 10.4 °F 31% 30.39 in 10.0 mi NNW 18.4 mph 26.5 mph N/A   Clear
9:35 AM 39.2 °F 31.2 °F 12.2 °F 33% 30.39 in 10.0 mi NNW 13.8 mph 21.9 mph N/A   Clear
9:55 AM 39.2 °F 29.8 °F 10.4 °F 31% 30.41 in 9.0 mi North 18.4 mph 26.5 mph N/A   Clear
10:15 AM 41.0 °F 33.5 °F 10.4 °F 29% 30.41 in 10.0 mi North 13.8 mph 19.6 mph N/A   Clear
10:35 AM 41.0 °F 32.8 °F 12.2 °F 31% 30.42 in 10.0 mi NNW 16.1 mph 23.0 mph N/A   Clear
10:55 AM 41.0 °F 33.1 °F 12.2 °F 31% 30.42 in 10.0 mi North 15.0 mph 18.4 mph N/A   Clear
11:15 AM 42.8 °F 35.8 °F 12.2 °F 29% 30.41 in 10.0 mi NNW 13.8 mph - N/A   Clear
11:35 AM 42.8 °F 36.2 °F 12.2 °F 29% 30.40 in 10.0 mi NNW 12.7 mph - N/A   Clear
11:55 AM 42.8 °F 35.1 °F 12.2 °F 29% 30.40 in 10.0 mi NNW 16.1 mph 19.6 mph N/A   Clear
12:15 PM 42.8 °F 36.2 °F 12.2 °F 29% 30.39 in 10.0 mi NNW 12.7 mph 17.3 mph N/A   Clear
12:35 PM 42.8 °F 36.2 °F 12.2 °F 29% 30.37 in 10.0 mi WNW 12.7 mph 17.3 mph N/A   Clear
12:55 PM 42.8 °F 37.0 °F 10.4 °F 27% 30.37 in 10.0 mi NW 10.4 mph 18.4 mph N/A   Clear
1:15 PM 42.8 °F 35.4 °F 10.4 °F 27% 30.36 in 10.0 mi NW 15.0 mph 19.6 mph N/A   Clear
1:35 PM 44.6 °F 39.2 °F 10.4 °F 25% 30.34 in 10.0 mi NNW 10.4 mph - N/A   Clear
1:55 PM 44.6 °F 37.8 °F 10.4 °F 25% 30.34 in 10.0 mi WNW 15.0 mph - N/A   Clear
2:15 PM 44.6 °F 39.7 °F 8.6 °F 23% 30.33 in 10.0 mi NNW 9.2 mph - N/A   Clear
2:35 PM 44.6 °F 40.2 °F 10.4 °F 25% 30.32 in 10.0 mi North 8.1 mph - N/A   Clear
2:55 PM 44.6 °F 39.7 °F 8.6 °F 23% 30.32 in 10.0 mi NNW 9.2 mph - N/A   Clear
3:15 PM 44.6 °F 39.2 °F 6.8 °F 21% 30.31 in 10.0 mi NNW 10.4 mph 16.1 mph N/A   Clear
3:35 PM 44.6 °F 39.7 °F 5.0 °F 20% 30.31 in 10.0 mi North 9.2 mph - N/A   Clear
3:55 PM 44.6 °F 40.7 °F 8.6 °F 23% 30.31 in 10.0 mi NNW 6.9 mph - N/A   Clear
4:15 PM 44.6 °F 42.2 °F 8.6 °F 23% 30.31 in 10.0 mi West 4.6 mph - N/A   Clear
4:35 PM 44.6 °F 40.7 °F 8.6 °F 23% 30.30 in 10.0 mi NNW 6.9 mph - N/A   Clear
4:55 PM 44.6 °F 41.4 °F 8.6 °F 23% 30.30 in 10.0 mi NW 5.8 mph - N/A   Clear
5:15 PM 42.8 °F 39.3 °F 8.6 °F 25% 30.30 in 10.0 mi NW 5.8 mph - N/A   Clear
5:35 PM 42.8 °F - 10.4 °F 27% 30.30 in 10.0 mi Calm Calm - N/A   Clear
5:55 PM 41.0 °F - 10.4 °F 29% 30.30 in 10.0 mi Calm Calm - N/A   Clear
6:15 PM 37.4 °F - 14.0 °F 38% 30.29 in 10.0 mi Calm Calm - N/A   Clear
6:35 PM 35.6 °F - 14.0 °F 41% 30.28 in 10.0 mi Calm Calm - N/A   Clear
6:55 PM 33.8 °F - 17.6 °F 52% 30.28 in 10.0 mi Calm Calm - N/A   Clear
7:15 PM 33.8 °F - 15.8 °F 48% 30.27 in 10.0 mi Calm Calm - N/A   Clear
7:35 PM 32.0 °F - 19.4 °F 60% 30.26 in 9.0 mi Calm Calm - N/A   Clear
7:55 PM 32.0 °F - 15.8 °F 51% 30.25 in 10.0 mi Calm Calm - N/A   Clear
8:15 PM 32.0 °F - 21.2 °F 64% 30.26 in 10.0 mi Calm Calm - N/A   Clear
8:35 PM 32.0 °F - 19.4 °F 60% 30.25 in 10.0 mi Calm Calm - N/A   Clear
8:55 PM 32.0 °F - 19.4 °F 60% 30.26 in 10.0 mi Calm Calm - N/A   Clear
9:15 PM 32.0 °F - 21.2 °F 64% 30.26 in 10.0 mi Calm Calm - N/A   Clear
9:35 PM 30.2 °F - 21.2 °F 69% 30.25 in 10.0 mi Calm Calm - N/A   Clear
9:55 PM 30.2 °F - 19.4 °F 64% 30.25 in 10.0 mi Calm Calm - N/A   Clear
10:15 PM 30.2 °F - 19.4 °F 64% 30.24 in 10.0 mi Calm Calm - N/A   Clear
10:35 PM 28.4 °F - 21.2 °F 74% 30.23 in 10.0 mi Calm Calm - N/A   Clear
10:55 PM 28.4 °F - 21.2 °F 74% 30.23 in 10.0 mi Calm Calm - N/A   Clear
11:15 PM 28.4 °F - 21.2 °F 74% 30.23 in 10.0 mi Calm Calm - N/A   Clear
11:35 PM 28.4 °F - 23.0 °F 80% 30.22 in 10.0 mi Calm Calm - N/A   Clear
11:55 PM 28.4 °F - 23.0 °F 80% 30.22 in 10.0 mi Calm Calm - N/A   Clear